This is the latest recevied weather packets stored in our database for station/object WX9WTF. If no packets are shown the sender has not sent any weather packets the latest 10 day(s).
| Time | Temp. | Humidity | Pressure | Rain* | Wind** | Luminosity | Snow |
|---|---|---|---|---|---|---|---|
| 1777499805 | 16.67° C | 50% | 1018.4 hPa | 0 mm | - | 484 W/m² | - |
| 1777499500 | 16.11° C | 50% | 1018.4 hPa | 0 mm | - | 262 W/m² | - |
| 1777499199 | 16.67° C | 50% | 1018.4 hPa | 0 mm | - | 522 W/m² | - |
| 1777498895 | 16.67° C | 52% | 1018.6 hPa | 0 mm | - | 312 W/m² | - |
| 1777498592 | 16.67° C | 49% | 1018.5 hPa | 0 mm | - | 512 W/m² | - |
| 1777498288 | 16.67° C | 52% | 1018.6 hPa | 0 mm | - | 537 W/m² | - |
| 1777497987 | 16.67° C | 52% | 1018.8 hPa | 0 mm | - | 351 W/m² | - |
| 1777497682 | 17.22° C | 51% | 1018.6 hPa | 0 mm | - | 335 W/m² | - |
| 1777497379 | 17.22° C | 52% | 1018.8 hPa | 0 mm | - | 369 W/m² | - |
| 1777497075 | 16.67° C | 51% | 1019 hPa | 0 mm | - | 563 W/m² | - |
| 1777496772 | 17.22° C | 51% | 1019 hPa | 0 mm | - | 633 W/m² | - |
| 1777496469 | 17.22° C | 49% | 1019.2 hPa | 0 mm | - | 628 W/m² | - |
| 1777496165 | 16.67° C | 53% | 1019.3 hPa | 0 mm | - | 540 W/m² | - |
| 1777495861 | 16.67° C | 51% | 1019.2 hPa | 0 mm | - | 636 W/m² | - |
| 1777495557 | 16.11° C | 51% | 1019.4 hPa | 0 mm | - | 562 W/m² | - |
| 1777495253 | 16.11° C | 51% | 1019.3 hPa | 0 mm | - | 480 W/m² | - |
| 1777494951 | 16.67° C | 51% | 1019.6 hPa | 0 mm | - | 491 W/m² | - |
| 1777494648 | 16.67° C | 53% | 1019.6 hPa | 0 mm | - | 501 W/m² | - |
| 1777494345 | 16.11° C | 50% | 1019.7 hPa | 0 mm | - | 526 W/m² | - |
| 1777494042 | 16.67° C | 50% | 1019.8 hPa | 0 mm | - | 533 W/m² | - |
| 1777493739 | 16.11° C | 51% | 1019.9 hPa | 0 mm | - | 723 W/m² | - |
| 1777493438 | 16.11° C | 57% | 1020 hPa | 0 mm | - | 712 W/m² | - |
| 1777493133 | 15.56° C | 51% | 1020.1 hPa | 0 mm | - | 649 W/m² | - |
| 1777492830 | 15.56° C | 51% | 1020 hPa | 0 mm | - | 414 W/m² | - |
| 1777492526 | 15.56° C | 50% | 1020.1 hPa | 0 mm | - | 396 W/m² | - |
* Rain latest hour (hover to see other rain measurements)
** Current wind speed in m/s (hover to see current wind gust speed)